Powrót do katalogu

STARLINK-32653

AktywnyŁącznośćVLEO
NORAD 62199·PAYLOAD·🇺🇸 United States

Wystrzelony Dec 4, 2024 z Cape Canaveral Space Force Station

Loading…

Następne Przeloty (najbliższe 24 godziny)

TLE

ŚwieżeSource: CelesTrak SupGP

Epoka: Sep 15, 2026, 02:50 UTC

1 62199C 24229H   26258.11854167 -.00011104  00000+0 -40209-3 0  2586
2 62199  42.9995 274.0474 0001296 266.4029 357.7598 15.27590093    18

Śledź STARLINK-32653 w czasie rzeczywistym z AllMySat

Download on the App Store